Preview of NWS' New Version of Forecast
This preview is not operational and should not be used for support decisions.

Regional Weather Roundup (RWR)

Issued by National Weather Service (NWS)

                            
000
ASUS45 KBOI 222110
RWRID 

IDAHO REGIONAL WEATHER ROUNDUP
NATIONAL WEATHER SERVICE BOISE ID
300 PM MDT MON APR 22 2019

NOTE: "FAIR" INDICATES FEW OR NO CLOUDS BELOW 12000 FEET
WITH NO SIGNIFICANT WEATHER AND/OR OBSTRUCTIONS TO VISIBILITY

IDZ012-014-222200-
SOUTHWEST IDAHO

  
CITY           SKY/WX    TMP DP  RH WIND       PRES   REMARKS
BOISE          SUNNY     65  37  35 NW10      30.20F                  
CALDWELL       SUNNY     67  40  37 W7        30.20F                  
MOUNTAIN HOME  MOSUNNY   66  34  30 N10G17    30.19F                  
$$

IDZ016-017-222200-
SOUTHCENTRAL IDAHO

  
CITY           SKY/WX    TMP DP  RH WIND       PRES   REMARKS
BURLEY         PTSUNNY   62  39  42 W8        30.20F                  
JEROME         CLOUDY    61  42  49 SW9       30.22F                  
TWIN FALLS     PTSUNNY   59  40  49 W6        30.22F                  
$$

IDZ019>023-222200-
SOUTHEAST IDAHO

  
CITY           SKY/WX    TMP DP  RH WIND       PRES   REMARKS
IDAHO FALLS    MOSUNNY   62  34  35 SE5       30.19F                  
POCATELLO      PTSUNNY   60  37  42 SW3       30.21F                  
REXBURG        MOSUNNY   60  37  42 CALM      30.18F                  
$$

IDZ006-010-011-018-031-032-222200-
CENTRAL IDAHO MOUNTAINS

  
CITY           SKY/WX    TMP DP  RH WIND       PRES   REMARKS
MCCALL         PTSUNNY   54  28  36 S7        30.21F                  
HAILEY         MOSUNNY   61  36  39 CALM      30.23R                  
STANLEY          N/A     55  19  24 NW6       30.25F                  
SALMON         SUNNY     61  34  36 N8        30.19F                  
CHALLIS        SUNNY     64  21  19 VRB3      30.18F                  
$$

IDZ002-004-006-007-026-222200-
NORTHERN IDAHO

  
CITY           SKY/WX    TMP DP  RH WIND       PRES   REMARKS
LEWISTON       MOSUNNY   66  42  41 VRB5      30.20F                  
LOWELL           N/A     67  45  45 S6        30.18F                  
COEUR D'ALENE  PTSUNNY   64  39  39 W10       30.19F                  
MULLAN PASS    PTSUNNY   49  22  34 VRB3      30.22F                  
$$